Погода в Карате

Россия / Республика Дагестан     42°35′44″N   46°20′09″E
темп.,
°C
ветер,
м/с
пор.,
м/с
влажн.,
%
обл.,
%
осадки,
мм/ч
давл.,
гПа
погр.,
м
18 апреля, вс
вс1800:00+4ююз3382100 0.0 102047
03:00+4ююз2386100 0.0 101952
06:00+4ю3485100 0.0 1019119
09:00+8юз2374100 0.1 1016616
12:00+11юз256313 0.1 10151309
15:00+13зюз3642100 0.2 10131965
18:00+8сз2276100 0.9 1016120
21:00+6ююз0091100 2.5 1019173
19 апреля, пн
пн1900:00+5ю3281100 0.1 101839
03:00+5ю3277100 0.1 101729
06:00+5ю227784 0.0 101849
09:00+10юв015899 0.0 10161059
12:00+11з1256100 0.1 10151180
15:00+12юз1351100 0.2 10141452
18:00+10юз2367100 0.1 1015201
21:00+6ююз3379100 0.1 101765
20 апреля, вт
вт2000:00+6ююз4475100 0.0 101668
03:00+6ююз4478100 0.0 101668
06:00+7ююз3373100 0.0 101460
09:00+15юз2443100 0.0 1011801
12:00+15юз3741100 0.0 10111371
15:00+15юз384276 0.0 10091467
18:00+13ююз4457100 0.0 101080
21:00+9ююз4575100 0.1 101295
21 апреля, ср
ср2100:00+8ююз4477100 0.1 101264
03:00+7ююз34785 0.1 101251
06:00+7ююз33800 0.1 101360
09:00+14з18487 0.1 10111760
12:00+14з3104420 0.1 10122256
15:00+12с256029 0.7 10121096
18:00+5ссз3295100 2.6 1017334
21:00+4сз229690 6.3 1019249
22 апреля, чт
чт2200:00+5ссз119599 0.8 1018208
03:00+4юв019431 1.0 101886
06:00+5ссв119331 0.1 1018113
09:00+8ссв237533 0.4 1017751
12:00+10с246473 0.6 1016923
15:00+9с346833 1.3 1016869
18:00+5с3292100 0.3 1018351
21:00+4с2196100 0.5 1018294